FW1589 Weather Reports


time (UTC)temp
C
wind
direction
speed
KPH
gust
KPH
rain 1hr
cm
rain 24hr
cm
rain mn
cm
humidity
%
barometer
mb
20260503181751 13 230 6.4 16.1 0.00 0.00 0.00 79 995.9
20260503181245 13 240 4.8 16.1 0.00 0.00 0.00 79 995.8
20260503180739 13 241 3.2 9.7 0.00 0.00 0.00 79 995.8
20260503180233 13 211 3.2 12.9 0.00 0.00 0.00 80 995.8
20260503175727 13 228 4.8 17.7 0.00 0.00 0.00 79 995.8
20260503175221 13 256 4.8 17.7 0.00 0.00 0.00 79 995.7
20260503174715 13 235 4.8 16.1 0.00 0.00 0.00 81 995.7
20260503174209 13 306 4.8 16.1 0.00 0.00 0.00 81 995.6
20260503173157 13 265 6.4 14.5 0.00 0.00 0.00 80 995.7
20260503172657 13 189 4.8 12.9 0.00 0.00 0.00 80 995.6
20260503172144 13 232 4.8 12.9 0.00 0.00 0.00 80 995.6
20260503171640 13 221 4.8 17.7 0.00 0.00 0.00 79 995.7
20260503171133 13 230 4.8 17.7 0.00 0.00 0.00 80 995.7
20260503170626 13 248 6.4 14.5 0.00 0.00 0.00 81 995.7
20260503170120 13 294 4.8 16.1 0.00 0.00 0.00 81 995.6
20260503150930 12 221 3.2 8.0 0.00 0.00 0.00 84 995.1
20260503150428 12 238 3.2 12.9 0.00 0.00 0.00 84 995.0
20260503130847 11 211 3.2 11.3 0.00 0.00 0.00 84 993.5
20260503130346 11 215 3.2 11.3 0.00 0.00 0.00 84 993.4
20260503110334 11 267 3.2 11.3 0.00 0.00 0.00 83 993.4
20260503090307 11 207 3.2 6.4 0.00 0.00 0.00 84 993.7
20260503080757 11 180 3.2 14.5 0.00 0.00 0.00 83 994.2
20260503080258 11 171 3.2 16.1 0.00 0.00 0.00 83 994.3
20260503072755 12 185 3.2 9.7 0.00 0.00 0.00 83 994.3
20260503072255 12 184 1.6 4.8 0.00 0.00 0.00 83 994.2
20260503071755 12 178 1.6 6.4 0.00 0.00 0.00 83 994.4
20260503071255 12 177 3.2 6.4 0.00 0.00 0.00 83 994.3
20260503070755 12 190 3.2 6.4 0.00 0.00 0.00 83 994.2
20260503070255 12 195 1.6 6.4 0.00 0.00 0.00 83 994.4
20260503060155 12 185 1.6 4.8 0.00 0.00 0.00 83 994.8
20260503054632 12 237 1.6 6.4 0.00 0.00 0.00 84 994.8
20260503054126 12 212 0.0 6.4 0.00 0.00 0.00 84 994.9
20260503053620 12 238 1.6 4.8 0.00 0.00 0.00 84 994.9
20260503053118 12 238 1.6 6.4 0.00 0.00 0.00 84 994.8
20260503052607 12 230 3.2 6.4 0.00 0.00 0.00 84 994.9
20260503052102 12 213 3.2 4.8 0.00 0.00 0.00 84 994.9
20260503051556 12 205 1.6 4.8 0.00 0.00 0.00 84 994.9
20260503051050 12 221 1.6 6.4 0.00 0.00 0.00 84 994.9
20260503050544 12 239 1.6 6.4 0.00 0.00 0.00 84 994.9
20260503050038 12 228 1.6 4.8 0.00 0.00 0.00 84 994.9
20260503045531 12 228 1.6 6.4 0.00 0.00 0.00 83 994.8
20260503045025 12 230 1.6 6.4 0.00 0.00 0.00 83 994.8
20260503044014 12 230 1.6 4.8 0.00 0.00 0.00 83 994.7
20260503043508 12 236 1.6 6.4 0.00 0.00 0.00 83 994.7
20260503043002 12 192 3.2 11.3 0.00 0.00 0.00 83 994.6
20260503042455 12 238 3.2 11.3 0.00 0.00 0.00 83 994.6
20260503041949 12 250 1.6 8.0 0.00 0.00 0.00 83 994.6
20260503041444 12 224 3.2 6.4 0.00 0.00 0.00 83 994.6
20260503035939 12 198 1.6 6.4 0.00 0.00 0.00 83 994.6
20260503035440 12 257 1.6 6.4 0.00 0.00 0.00 83 994.5
20260503034939 12 227 1.6 6.4 0.00 0.00 0.00 83 994.5
20260503034438 12 248 1.6 6.4 0.00 0.00 0.00 83 994.4
20260503033937 12 202 3.2 8.0 0.00 0.00 0.00 83 994.5
20260503033438 12 242 1.6 8.0 0.00 0.00 0.00 83 994.4
20260503032934 12 211 1.6 6.4 0.00 0.00 0.00 83 994.4
20260503032435 12 247 3.2 9.7 0.00 0.00 0.00 83 994.3
20260503031936 12 228 3.2 9.7 0.00 0.00 0.00 83 994.2
20260503031434 12 267 1.6 8.0 0.00 0.00 0.00 83 994.0
20260503030933 12 194 3.2 9.7 0.00 0.00 0.00 83 993.9
20260503030433 12 251 3.2 11.3 0.00 0.00 0.00 83 993.7
20260503025933 12 274 3.2 11.3 0.00 0.00 0.00 83 993.8
20260503024434 12 276 4.8 16.1 0.00 0.00 0.00 82 993.8
20260503023928 12 267 3.2 16.1 0.00 0.00 0.00 82 993.8
20260503023421 12 227 3.2 9.7 0.00 0.00 0.00 82 993.7
20260503022922 12 199 3.2 12.9 0.00 0.00 0.00 81 993.7
20260503022418 12 228 3.2 14.5 0.00 0.00 0.00 81 993.7
20260503021919 12 257 3.2 14.5 0.00 0.00 0.00 81 993.7
20260503020918 12 245 3.2 11.3 0.00 0.00 0.00 81 993.8
20260503015918 13 342 4.8 16.1 0.00 0.00 0.00 81 993.7
20260503015419 13 229 4.8 16.1 0.00 0.00 0.00 80 993.7
20260503014419 13 231 4.8 14.5 0.00 0.00 0.00 79 993.9
20260503013920 13 211 4.8 14.5 0.00 0.00 0.00 79 994.0
20260503013419 13 226 4.8 16.1 0.00 0.00 0.00 79 993.9
20260503012918 13 248 4.8 16.1 0.00 0.00 0.00 79 993.9
20260503010915 13 232 4.8 14.5 0.00 0.00 0.00 77 994.1
20260503010414 13 279 4.8 12.9 0.00 0.00 0.00 78 994.1
20260503005916 13 225 4.8 12.9 0.00 0.00 0.00 77 994.1
20260503005416 13 219 6.4 12.9 0.00 0.00 0.00 77 994.2
20260503004415 14 256 6.4 14.5 0.00 0.00 0.00 77 994.1
20260503003915 13 259 6.4 14.5 0.00 0.00 0.00 77 994.2
20260503003415 14 241 6.4 16.1 0.00 0.00 0.00 77 994.2
20260503002916 14 222 6.4 16.1 0.00 0.00 0.00 77 994.2
20260503002415 14 240 8.0 16.1 0.00 0.00 0.00 77 994.3
20260503001415 14 169 6.4 17.7 0.00 0.00 0.00 76 994.3
20260503000914 15 222 6.4 14.5 0.00 0.00 0.00 76 994.3
20260503000415 15 251 6.4 14.5 0.00 0.00 0.00 76 994.4
20260502235915 15 207 6.4 20.9 0.00 0.00 0.00 76 994.5
20260502235414 15 243 6.4 20.9 0.00 0.00 0.00 76 994.4
20260502234914 14 131 6.4 19.3 0.00 0.00 0.00 77 994.6
20260502234415 14 232 8.0 19.3 0.00 0.00 0.00 77 994.6
20260502233914 14 250 8.0 19.3 0.00 0.00 0.00 76 994.7
20260502233415 15 260 8.0 22.5 0.00 0.00 0.00 76 994.8
20260502232915 15 182 8.0 22.5 0.00 0.00 0.00 75 994.8
20260502231915 15 180 8.0 17.7 0.00 0.00 0.00 75 994.9
20260502231415 15 192 6.4 14.5 0.00 0.00 0.00 75 994.9
20260502230914 15 209 6.4 17.7 0.00 0.00 0.00 76 994.9
20260502225414 15 177 8.0 25.7 0.00 0.00 0.00 74 995.3
20260502224412 15 242 8.0 22.5 0.00 0.00 0.00 74 995.4
20260502223912 15 262 8.0 22.5 0.00 0.00 0.00 73 995.5
20260502223413 15 203 6.4 16.1 0.00 0.00 0.00 74 995.5
20260502222912 15 221 6.4 17.7 0.00 0.00 0.00 74 995.6
20260502222412 15 223 8.0 17.7 0.00 0.00 0.00 73 995.5
20260502221912 15 221 8.0 22.5 0.00 0.00 0.00 74 995.7
20260502221411 15 221 8.0 22.5 0.00 0.00 0.00 74 995.7
20260502220910 15 169 8.0 16.1 0.00 0.00 0.00 75 995.8
20260502215910 15 259 6.4 17.7 0.00 0.00 0.00 76 995.8
20260502215410 14 198 6.4 17.7 0.00 0.00 0.00 77 995.9
20260502214906 14 256 6.4 17.7 0.00 0.00 0.00 76 995.8
20260502214406 14 242 6.4 24.1 0.00 0.00 0.00 77 995.9
20260502212402 14 209 8.0 17.7 0.00 0.00 0.00 75 995.9
20260502211400 13 245 8.0 17.7 0.00 0.00 0.00 77 996.0
20260502210402 13 254 8.0 22.5 0.00 0.00 0.00 78 996.1
20260502205900 13 232 8.0 20.9 0.00 0.00 0.00 78 996.2
20260502205400 13 206 8.0 16.1 0.00 0.00 0.00 78 996.3
20260502204401 13 264 8.0 16.1 0.00 0.00 0.00 78 996.3
20260502203901 13 236 8.0 16.1 0.00 0.00 0.00 78 996.3
20260502203354 13 236 6.4 16.1 0.00 0.00 0.00 79 996.5
20260502202849 13 225 6.4 14.5 0.00 0.00 0.00 80 996.4
20260502202343 13 230 6.4 14.5 0.00 0.00 0.00 80 996.4
20260502201331 13 228 8.0 17.7 0.00 0.00 0.00 81 996.4
20260502200825 13 269 6.4 16.1 0.00 0.00 0.00 81 996.5
20260502200318 13 254 6.4 17.7 0.00 0.00 0.00 81 996.6
20260502195813 13 219 6.4 16.1 0.00 0.00 0.00 81 996.6
20260502195306 13 222 4.8 12.9 0.00 0.00 0.00 82 996.5
20260502194801 13 220 4.8 9.7 0.00 0.00 0.00 82 996.5
20260502194255 13 236 4.8 12.9 0.00 0.00 0.00 82 996.5
20260502193749 13 190 4.8 12.9 0.00 0.00 0.00 82 996.6
20260502193243 13 233 4.8 12.9 0.00 0.00 0.00 83 996.5
20260502192231 12 225 6.4 16.1 0.00 0.00 0.00 82 996.6
20260502191725 13 223 4.8 16.1 0.00 0.00 0.00 83 996.6
20260502191219 13 242 4.8 11.3 0.00 0.00 0.00 82 996.5
20260502190713 13 265 6.4 12.9 0.00 0.00 0.00 82 996.6
20260502190207 12 238 6.4 17.7 0.00 0.00 0.00 82 996.6
20260502185702 12 234 6.4 17.7 0.00 0.00 0.00 82 996.5
20260502185155 12 205 4.8 14.5 0.00 0.00 0.00 83 996.6
20260502184649 12 253 4.8 12.9 0.00 0.00 0.00 84 996.6
20260502183637 12 207 6.4 14.5 0.00 0.00 0.00 84 996.6
20260502183131 12 191 6.4 14.5 0.00 0.00 0.00 84 996.6
20260502182624 12 184 6.4 17.7 0.00 0.00 0.00 84 996.6
20260502182119 12 207 6.4 17.7 0.00 0.00 0.00 85 996.7